Sexton Summit, OR

1:53 PM PDT on September 21, 2017 (GMT -0700)
Sexton Summit

Weather History for KSXT - June, 2014

Change the Weather History Date:

Sunday, June 15, 2014

  Actual Average Record
Temperature  
Mean Temperature 51 °F -  
Max Temperature 61 °F 66 °F 75 °F (1997)
Min Temperature 41 °F 44 °F 35 °F (2016)
Degree Days  
Heating Degree Days 14    
Growing Degree Days 1 (Base 50)    
Moisture  
Dew Point 41 °F    
Average Humidity 82    
Maximum Humidity 96    
Minimum Humidity 53    
Precipitation  
Precipitation 0.00 in - - ()
Sea Level Pressure  
Sea Level Pressure 29.92 in    
Wind  
Wind Speed 8 mph (North)    
Max Wind Speed 14 mph    
Max Gust Speed 22 mph    
Visibility 7 miles    
Events Fog    
Averages and records for this station are not official NWS values.
T = Trace of Precipitation, MM = Missing Value Source: NWS Daily Summary

Daily Weather History Graph

Daily Weather History Graph

Search for Another Location

Airport or City:

Trip Planner

Search our weather history database for the weather conditions in past years. The results will help you decide how hot, cold, wet, or windy it might be!

Date:

Astronomy

Jun. 15, 2014 Rise Set
Actual Time 5:35 AM PDT 8:53 PM PDT
Civil Twilight 5:00 AM PDT 9:28 PM PDT
Nautical Twilight 4:14 AM PDT 10:13 PM PDT
Astronomical Twilight 3:19 AM PDT 11:08 PM PDT
Moon 11:03 PM PDT (6/15) 8:38 AM PDT (6/15)
Length of Visible Light 16h 27m
Length of Day
15h 17m
Waning Gibbous, 90% of the Moon is Illuminated
Jun 15
Waning Gibbous
Jun 19
Last Quarter
Jun 27
New
Jul 5
First Quarter
Jul 12
Full

Hourly Weather History & Observations

Time (PDT) Temp. Windchill Dew Point Humidity Pressure Visibility Wind Dir Wind Speed Gust Speed Precip Events Conditions
12:56 AM 44.1 °F 38.6 °F 39.9 °F 85% 29.95 in 10.0 mi North 10.4 mph 21.9 mph N/A   Clear
1:56 AM 43.0 °F 36.0 °F 39.9 °F 89% 29.94 in 10.0 mi NE 13.8 mph 19.6 mph N/A   Clear
2:56 AM 43.0 °F 38.2 °F 41.0 °F 93% 29.92 in 10.0 mi North 8.1 mph - N/A   Clear
4:08 AM 42.1 °F 37.1 °F 39.9 °F 92% 29.97 in 4.0 mi NNW 8.1 mph - N/A   Scattered Clouds
4:16 AM 42.1 °F 37.1 °F 39.9 °F 92% 29.96 in 2.0 mi North 8.1 mph - N/A   Mostly Cloudy
4:18 AM 42.1 °F 37.1 °F 41.0 °F 96% 29.96 in 1.2 mi North 8.1 mph - N/A   Mostly Cloudy
4:29 AM 42.1 °F 37.1 °F 41.0 °F 96% 29.96 in 0.8 mi North 8.1 mph - N/A   Mist
4:56 AM 42.1 °F 36.6 °F 41.0 °F 96% 29.91 in 0.8 mi North 9.2 mph - N/A   Mist
5:07 AM 42.1 °F 36.6 °F 41.0 °F 96% 29.95 in 0.2 mi North 9.2 mph - N/A Fog Fog
5:56 AM 42.1 °F 36.1 °F 41.0 °F 96% 29.91 in 0.2 mi North 10.4 mph - N/A Fog Fog
6:56 AM 42.1 °F 37.7 °F 41.0 °F 96% 29.92 in 0.2 mi North 6.9 mph - N/A Fog Fog
7:13 AM 42.1 °F 37.1 °F 41.0 °F 96% 29.96 in 1.0 mi North 8.1 mph - N/A   Mist
7:16 AM 42.1 °F 37.7 °F 41.0 °F 96% 29.96 in 2.0 mi North 6.9 mph - N/A   Overcast
7:25 AM 42.1 °F 37.1 °F 41.0 °F 96% 29.95 in 4.0 mi NNE 8.1 mph - N/A   Overcast
7:56 AM 44.1 °F 39.5 °F 41.0 °F 89% 29.92 in 6.0 mi North 8.1 mph - N/A   Overcast
8:56 AM 46.9 °F - 43.0 °F 86% 29.93 in 10.0 mi Variable 3.5 mph - N/A   Overcast
9:56 AM 48.9 °F - 43.0 °F 80% 29.92 in 10.0 mi Variable 4.6 mph - N/A   Overcast
10:13 AM 50.0 °F - 43.0 °F 77% 29.95 in 10.0 mi Variable 3.5 mph - N/A   Overcast
10:56 AM 51.1 °F - 43.0 °F 74% 29.93 in 10.0 mi Variable 4.6 mph - N/A   Overcast
11:31 AM 52.0 °F - 43.0 °F 71% 29.96 in 10.0 mi Variable 3.5 mph - N/A   Overcast
11:56 AM 53.1 °F - 43.0 °F 69% 29.91 in 10.0 mi Calm Calm - N/A   Overcast
12:28 PM 55.0 °F - 42.1 °F 62% 29.95 in 10.0 mi Variable 4.6 mph - N/A   Partly Cloudy
12:56 PM 55.9 °F - 41.0 °F 57% 29.90 in 10.0 mi Calm Calm - N/A   Clear
1:56 PM 57.0 °F - 41.0 °F 55% 29.89 in 10.0 mi Variable 5.8 mph - N/A   Clear
2:56 PM 60.1 °F - 43.0 °F 53% 29.87 in 10.0 mi NNW 8.1 mph - N/A   Partly Cloudy
3:56 PM 59.0 °F - 43.0 °F 55% 29.86 in 10.0 mi NW 3.5 mph - N/A   Partly Cloudy
4:56 PM 57.9 °F - 44.1 °F 60% 29.85 in 10.0 mi Variable 5.8 mph - N/A   Partly Cloudy
5:56 PM 55.0 °F - 43.0 °F 64% 29.86 in 10.0 mi Variable 4.6 mph - N/A   Clear
6:56 PM 53.1 °F - 42.1 °F 66% 29.86 in 10.0 mi Variable 4.6 mph - N/A   Partly Cloudy
7:56 PM 50.0 °F - 41.0 °F 71% 29.87 in 10.0 mi North - - N/A   Clear
8:56 PM 46.0 °F 41.0 °F 39.9 °F 79% 29.88 in 10.0 mi NNW 10.4 mph 17.3 mph N/A   Scattered Clouds
9:03 PM 45.0 °F 41.2 °F 39.9 °F 82% 29.90 in 10.0 mi Variable 6.9 mph 18.4 mph N/A   Mostly Cloudy
9:45 PM 44.1 °F 41.5 °F 39.9 °F 85% 29.91 in 10.0 mi Variable 4.6 mph - N/A   Mostly Cloudy
9:56 PM 44.1 °F 42.5 °F 39.9 °F 85% 29.89 in 10.0 mi Variable 3.5 mph - N/A   Mostly Cloudy
10:28 PM 43.0 °F 38.8 °F 39.9 °F 89% 29.92 in 10.0 mi NNW 6.9 mph - N/A   Mostly Cloudy
10:56 PM 42.1 °F 37.7 °F 39.9 °F 92% 29.89 in 10.0 mi Variable 6.9 mph - N/A   Overcast
11:03 PM 42.1 °F 37.1 °F 39.9 °F 92% 29.91 in 10.0 mi NNW 8.1 mph - N/A   Overcast
11:56 PM 41.0 °F 37.1 °F 39.0 °F 93% 29.88 in 10.0 mi Variable 5.8 mph - N/A   Overcast